Location: UBC Liquid-Mirror Observatory
(49.2876°N, 122.5728°W)
Time: 07:49:33
(UTC-08:00)

Amateur Radio Satellites - All Passes

Search period start: 09 February 2016 07:19
Search period end: 10 February 2016 07:19
Location: UBC Liquid-Mirror Observatory, 49.2876°N, 122.5728°W

Satellite Date Start Highest point End Downlink Frequencies (MHz)
Time Altitude Azimuth
CUTE 1.7 + AOD 2 09 Feb 07:23:07 07:25:28 14° 88° (E) 07:27:47 437.475
Cubesat XI-IV 09 Feb 07:25:46 07:30:58 51° 292° (WNW) 07:36:09 437.490
DOVE 4 09 Feb 07:30:30 07:34:29 36° 96° (E) 07:38:20 437.250
SEEDS 09 Feb 07:31:04 07:33:05 13° 88° (E) 07:35:07 437.485
LilacSat-2 09 Feb 07:36:15 07:39:28 27° 293° (WNW) 07:42:40 437.200
GOMX 1 09 Feb 07:45:28 07:50:03 86° 285° (WNW) 07:54:21 467.674
Cosmos 2499 09 Feb 07:47:17 07:49:59 12° 67° (ENE) 07:52:42 435.465 / 435.565
AAUSAT CUBESAT 2 09 Feb 07:47:56 07:49:36 12° 87° (E) 07:51:14 437.432
GONETS M04 09 Feb 07:48:43 07:55:39 28° 79° (E) 08:02:36
AO-7 09 Feb 07:54:52 07:58:22 13° 331° (NNW) 08:01:53 29.400- 29.500
CANX-2 09 Feb 08:06:48 08:10:53 41° 97° (E) 08:14:58 2200.000
ANTELSAT 09 Feb 08:12:55 08:15:11 14° 58° (ENE) 08:17:28 437.575/2403.000
BRITE-PL 09 Feb 08:14:30 08:18:42 28° 297° (WNW) 08:22:36 437.365/2234.400
O/OREOS (USA 219) 09 Feb 08:19:31 08:23:55 61° 112° (ESE) 08:28:24 437.305
TIGRISAT 09 Feb 08:19:43 08:22:16 16° 59° (ENE) 08:24:49 435.000
Cosmos 2504 09 Feb 08:22:44 08:27:17 15° 315° (NW) 08:31:52 435.465 / 435.565
PRISM 09 Feb 08:24:13 08:27:00 17° 269° (W) 08:29:49 437.425
CINEMA 3 09 Feb 08:29:56 08:34:00 51° 99° (E) 08:38:04 145.822/145.860
CUBEBUG 2 09 Feb 08:41:43 08:45:18 27° 95° (E) 08:48:53 437.445
UWE-3 09 Feb 08:44:08 08:47:24 21° 93° (E) 08:50:40 435.000/436.395/437.385
Oscar 11 09 Feb 08:47:03 08:50:26 22° 92° (E) 08:53:48 145.826/435.025
COMPASS 1 09 Feb 08:52:06 08:56:19 63° 101° (ESE) 09:00:30 437.405
CUTE-I 09 Feb 08:54:14 08:56:34 13° 310° (NW) 08:58:55 437.470
CUTE 1.7 + AOD 2 09 Feb 08:57:31 09:01:47 69° 287° (WNW) 09:06:03 437.475
HO-68 09 Feb 08:58:42 09:05:59 88° 108° (ESE) 09:13:12 435.675
SO-50 09 Feb 08:59:26 09:02:12 15° 349° (N) 09:04:59 436.795
UNISAT 6 09 Feb 09:02:22 09:06:21 38° 68° (ENE) 09:10:20 437.425
SEEDS 09 Feb 09:05:04 09:09:20 74° 286° (WNW) 09:13:35 437.485
DELFI C3 09 Feb 09:06:14 09:09:06 18° 91° (E) 09:11:56 145.870
DOVE 4 09 Feb 09:08:30 09:12:06 26° 296° (WNW) 09:15:35 437.250
Cubesat XI-IV 09 Feb 09:08:58 09:09:52 10° 313° (NW) 09:10:46 437.490
AAUSAT CUBESAT 2 09 Feb 09:21:26 09:25:40 79° 285° (WNW) 09:29:52 437.432
POLYITAN 1 09 Feb 09:23:57 09:26:57 19° 61° (ENE) 09:29:57 437.675
QB50P2 09 Feb 09:24:33 09:27:38 20° 61° (ENE) 09:30:42 145.880/145.840
GOMX 1 09 Feb 09:25:24 09:27:22 13° 306° (NW) 09:29:17 467.674
BUGSAT 1 09 Feb 09:31:44 09:33:27 12° 57° (ENE) 09:35:12 437.445
Cosmos 2499 09 Feb 09:32:36 09:40:58 52° 89° (E) 09:49:28 435.465 / 435.565
ZACube-1 09 Feb 09:39:09 09:43:17 54° 100° (E) 09:47:28 437.345
GONETS M04 09 Feb 09:42:55 09:51:36 77° 282° (WNW) 10:00:23
CANX-2 09 Feb 09:43:07 09:46:34 24° 296° (WNW) 09:50:00 2200.000
ANTELSAT 09 Feb 09:47:03 09:51:23 79° 258° (WSW) 09:55:40 437.575/2403.000
FUNcube-1 09 Feb 09:48:32 09:52:43 65° 102° (ESE) 09:56:57 145.935
POPSAT HIP 1 09 Feb 09:53:33 09:57:22 34° 67° (ENE) 10:01:11 437.405
TIGRISAT 09 Feb 09:54:11 09:58:30 70° 257° (WSW) 10:02:46 435.000
NANOSAT C BR1 09 Feb 09:58:33 10:02:27 37° 68° (ENE) 10:06:21 145.865
O/OREOS (USA 219) 09 Feb 10:00:15 10:03:45 22° 313° (NW) 10:07:16 437.305
DUCHIFAT 1 09 Feb 10:00:17 10:04:09 37° 68° (ENE) 10:08:02 145.980
HUMSAT D 09 Feb 10:03:30 10:07:15 31° 96° (E) 10:11:00 437.325/437.525
QB50P1 09 Feb 10:05:59 10:10:01 45° 70° (ENE) 10:14:05 145.935-145.965
CINEMA 3 09 Feb 10:07:56 10:10:51 19° 299° (WNW) 10:13:45 145.822/145.860
PCSat 09 Feb 10:12:58 10:16:56 21° 107° (ESE) 10:20:54 145.827
CUBEBUG 2 09 Feb 10:18:14 10:21:59 34° 292° (WNW) 10:25:48 437.445
UWE-3 09 Feb 10:20:07 10:24:04 42° 290° (WNW) 10:28:04 435.000/436.395/437.385
Oscar 11 09 Feb 10:22:38 10:26:48 45° 290° (WNW) 10:30:57 145.826/435.025
UKube-1 09 Feb 10:25:14 10:25:25 10° 86° (E) 10:25:36 .
AIST 1 09 Feb 10:26:08 10:30:17 42° 93° (E) 10:34:28
ESTCUBE 1 09 Feb 10:26:23 10:28:54 15° 88° (E) 10:31:26 437.505/2401.250
COMPASS 1 09 Feb 10:28:43 10:31:27 17° 300° (WNW) 10:34:11 437.405
CUBEBUG 1 09 Feb 10:29:31 10:30:42 11° 86° (E) 10:31:53 437.445
DX 1 09 Feb 10:34:04 10:36:39 15° 90° (E) 10:39:12 434.975-435.025
AO-85 09 Feb 10:34:43 10:39:49 45° 120° (ESE) 10:45:04 145.980
CUTE 1.7 + AOD 2 09 Feb 10:36:37 10:36:50 10° 305° (NW) 10:37:04 437.475
UNISAT 6 09 Feb 10:39:39 10:43:13 25° 266° (W) 10:46:46 437.425
DELFI C3 09 Feb 10:40:22 10:44:17 47° 289° (WNW) 10:48:10 145.870
SO-50 09 Feb 10:41:44 10:44:41 15° 14° (NNE) 10:47:35 436.795
SEEDS 09 Feb 10:43:20 10:44:18 11° 305° (NW) 10:45:15 437.485
HO-68 09 Feb 10:47:19 10:52:54 25° 309° (NW) 10:58:28 435.675
POLYITAN 1 09 Feb 10:58:17 11:02:26 54° 260° (W) 11:06:36 437.675
QB50P2 09 Feb 10:58:59 11:03:07 52° 260° (W) 11:07:16 145.880/145.840
AAUSAT CUBESAT 2 09 Feb 10:59:14 11:00:27 11° 304° (NW) 11:01:41 437.432
Oscar 19 09 Feb 10:59:23 11:02:29 16° 55° (NE) 11:05:36 437.125/150
50 SAT 09 Feb 11:00:01 11:03:21 29° 96° (E) 11:06:43 437.505
RS-15 09 Feb 11:01:31 11:11:31 40° 108° (ESE) 11:21:56 29.354- 29.394
BUGSAT 1 09 Feb 11:04:02 11:08:15 89° 49° (NE) 11:12:26 437.445
ZACube-1 09 Feb 11:16:20 11:19:16 19° 298° (WNW) 11:22:13 437.345
CUSAT 1 09 Feb 11:24:30 11:29:40 24° 56° (ENE) 11:33:53 437.405
JAS-2 09 Feb 11:25:26 11:31:28 28° 58° (ENE) 11:37:02 435.910
VELOX 1 09 Feb 11:25:29 11:29:45 44° 99° (E) 11:33:58 145.980
Cosmos 2499 09 Feb 11:25:57 11:34:17 45° 291° (WNW) 11:42:45 435.465 / 435.565
FUNcube-1 09 Feb 11:25:57 11:28:34 16° 300° (WNW) 11:31:10 145.935
Gurwin Techsat 1B 09 Feb 11:27:13 11:29:20 12° 50° (NE) 11:31:26 435.225
POPSAT HIP 1 09 Feb 11:29:34 11:33:13 28° 265° (W) 11:36:53 437.405
AO-7 09 Feb 11:33:22 11:36:21 12° 27° (NNE) 11:39:22 29.400- 29.500
NANOSAT C BR1 09 Feb 11:34:46 11:38:18 25° 266° (W) 11:41:50 145.865
DUCHIFAT 1 09 Feb 11:36:28 11:39:58 25° 266° (W) 11:43:30 145.980
HUMSAT D 09 Feb 11:39:14 11:42:51 29° 294° (WNW) 11:46:29 437.325/437.525
AISAT 09 Feb 11:41:59 11:46:25 67° 103° (ESE) 11:50:47 437.250
QB50P1 09 Feb 11:42:49 11:46:03 21° 268° (W) 11:49:17 145.935-145.965
GONETS M04 09 Feb 11:43:56 11:50:09 21° 307° (NW) 11:56:25
DANDE 09 Feb 11:52:25 11:58:50 28° 57° (ENE) 12:04:07 436.750
PCSat 09 Feb 11:54:20 11:59:45 75° 306° (NW) 12:05:14 145.827
UKube-1 09 Feb 11:57:49 12:02:11 84° 105° (ESE) 12:06:30 .
ESTCUBE 1 09 Feb 12:01:42 12:06:16 74° 287° (WNW) 12:10:48 437.505/2401.250
CUBEBUG 1 09 Feb 12:03:16 12:07:41 89° 112° (ESE) 12:12:03 437.445
AIST 1 09 Feb 12:04:34 12:08:06 23° 292° (WNW) 12:11:38
ITAMSAT 1 09 Feb 12:07:25 12:10:13 15° 53° (NE) 12:13:01 435.822/435.867
SPROUT 09 Feb 12:08:07 12:12:09 39° 98° (E) 12:16:10 437.525
DX 1 09 Feb 12:08:58 12:13:19 66° 288° (WNW) 12:17:37 434.975-435.025
AO-85 09 Feb 12:15:15 12:20:28 44° 320° (NW) 12:25:44 145.980
TISAT 1 09 Feb 12:19:38 12:22:50 21° 92° (E) 12:26:01 437.305
SO-50 09 Feb 12:22:02 12:26:34 36° 37° (NE) 12:30:58 436.795
YUBILEINY 09 Feb 12:26:47 12:33:26 23° 55° (NE) 12:40:00 435.215
50 SAT 09 Feb 12:34:07 12:37:21 27° 293° (WNW) 12:40:34 437.505
Oscar 19 09 Feb 12:35:54 12:41:06 87° 75° (ENE) 12:46:19 437.125/150
BUGSAT 1 09 Feb 12:43:27 12:44:15 10° 273° (W) 12:45:03 437.445
VELOX 1 09 Feb 13:02:26 13:06:01 24° 298° (WNW) 13:09:34 145.980
Gurwin Techsat 1B 09 Feb 13:03:03 13:08:17 62° 70° (ENE) 13:13:33 435.225
CUSAT 1 09 Feb 13:06:27 13:12:47 64° 264° (W) 13:17:31 437.405
JAS-2 09 Feb 13:08:20 13:15:59 78° 256° (WSW) 13:22:55 435.910
RS-15 09 Feb 13:11:49 13:23:06 75° 314° (NW) 13:35:07 29.354- 29.394
AO-7 09 Feb 13:19:25 13:26:42 35° 52° (NE) 13:33:59 29.400- 29.500
AISAT 09 Feb 13:19:33 13:22:26 17° 301° (WNW) 13:25:19 437.250
Cosmos 2499 09 Feb 13:26:34 13:30:15 13° 318° (NW) 13:33:57 435.465 / 435.565
DANDE 09 Feb 13:35:12 13:42:41 69° 264° (W) 13:48:25 436.750
UKube-1 09 Feb 13:35:23 13:37:39 14° 303° (WNW) 13:39:54 .
PCSat 09 Feb 13:39:57 13:44:06 22° 330° (NNW) 13:48:15 145.827
ESTCUBE 1 09 Feb 13:40:38 13:42:18 12° 306° (NW) 13:43:57 437.505/2401.250
CUBEBUG 1 09 Feb 13:41:13 13:43:19 13° 304° (NW) 13:45:25 437.445
SWISSCUBE 09 Feb 13:41:49 13:46:08 32° 96° (E) 13:50:24 437.505
ITAMSAT 1 09 Feb 13:43:41 13:48:52 77° 72° (ENE) 13:54:06 435.822/435.867
SPROUT 09 Feb 13:44:29 13:47:58 25° 296° (WNW) 13:51:27 437.525
DX 1 09 Feb 13:48:14 13:48:40 10° 307° (NW) 13:49:05 434.975-435.025
TISAT 1 09 Feb 13:54:45 13:58:44 44° 291° (WNW) 14:02:41 437.305
M-CUBED/EXP-1 PRIME 09 Feb 13:56:35 13:59:01 18° 58° (ENE) 14:01:21 437.505
AO-85 09 Feb 13:58:33 14:02:22 19° 343° (NNW) 14:06:08 145.980
SO-50 09 Feb 14:02:34 14:07:14 48° 238° (WSW) 14:11:44 436.795
AUBIESAT-1 09 Feb 14:06:39 14:09:09 19° 59° (ENE) 14:11:37 437.475
Cosmos 2504 09 Feb 14:17:37 14:24:20 24° 55° (NE) 14:30:45 435.465 / 435.565
ITUPSAT 1 09 Feb 14:18:10 14:22:57 60° 101° (ESE) 14:27:43 437.325
Oscar 19 09 Feb 14:18:14 14:21:08 15° 273° (W) 14:24:02 437.125/150
YUBILEINY 09 Feb 14:22:55 14:31:50 81° 79° (E) 14:40:41 435.215
BEESAT 09 Feb 14:26:55 14:31:44 73° 103° (ESE) 14:36:31 436.000
Cosmos 2491 09 Feb 14:33:30 14:41:30 43° 86° (E) 14:49:31 435.465 / 435.565
KKS-1 09 Feb 14:37:16 14:39:59 16° 90° (E) 14:42:40 437.445
Gurwin Techsat 1B 09 Feb 14:44:37 14:48:40 22° 269° (W) 14:52:45 435.225
JAS-2 09 Feb 14:57:07 15:01:53 18° 274° (W) 15:06:26 435.910
HORYU 2 09 Feb 15:05:34 15:09:45 44° 68° (ENE) 15:13:58 437.375
AO-7 09 Feb 15:10:35 15:18:56 72° 253° (WSW) 15:27:21 29.400- 29.500
SWISSCUBE 09 Feb 15:19:34 15:24:00 37° 294° (WNW) 15:28:24 437.505
DANDE 09 Feb 15:20:32 15:23:52 14° 288° (WNW) 15:26:54 436.750
CUTE-I 09 Feb 15:23:51 15:24:49 10° 48° (NE) 15:25:46 437.470
ITAMSAT 1 09 Feb 15:25:37 15:28:57 17° 271° (W) 15:32:20 435.822/435.867
RS-15 09 Feb 15:27:03 15:37:46 41° 345° (NNW) 15:49:02 29.354- 29.394
PCSat 09 Feb 15:27:37 15:29:39 12° 356° (N) 15:31:42 145.827
M-CUBED/EXP-1 PRIME 09 Feb 15:30:03 15:33:29 41° 254° (WSW) 15:36:44 437.505
Cubesat XI-IV 09 Feb 15:35:50 15:38:13 13° 51° (NE) 15:40:36 437.490
AUBIESAT-1 09 Feb 15:40:13 15:43:36 38° 255° (WSW) 15:46:49 437.475
AO-85 09 Feb 15:41:40 15:44:57 16° 7° (N) 15:48:09 145.980
STARS 09 Feb 15:56:27 16:00:44 50° 100° (E) 16:04:59 437.465
ITUPSAT 1 09 Feb 15:56:47 16:00:25 22° 300° (WNW) 16:04:03 437.325
MOZHAYETS 4 09 Feb 16:03:30 16:08:00 46° 99° (E) 16:12:27
BEESAT 09 Feb 16:05:46 16:09:01 18° 302° (WNW) 16:12:15 436.000
Cosmos 2504 09 Feb 16:10:25 16:19:15 84° 80° (E) 16:27:27 435.465 / 435.565
KKS-1 09 Feb 16:12:36 16:17:01 66° 288° (WNW) 16:21:24 437.445
BRITE-PL 09 Feb 16:14:05 16:17:13 15° 55° (NE) 16:20:17 437.365/2234.400
YUBILEINY 09 Feb 16:20:46 16:27:40 27° 282° (WNW) 16:34:33 435.215
ISS 09 Feb 16:26:06 16:29:00 30° 146° (SE) 16:31:55 145.825
Cosmos 2491 09 Feb 16:29:48 16:38:13 52° 289° (WNW) 16:46:43 435.465 / 435.565
HORYU 2 09 Feb 16:43:00 16:46:32 23° 267° (W) 16:50:05 437.375
CUBESAT XI-V 09 Feb 16:44:27 16:47:16 16° 88° (E) 16:50:03 437.345
O/OREOS (USA 219) 09 Feb 16:46:11 16:50:24 35° 54° (NE) 16:54:37 437.305
LilacSat-2 09 Feb 16:48:04 16:51:18 27° 67° (ENE) 16:54:32 437.200
BEESAT 3 09 Feb 16:54:54 16:58:05 23° 116° (ESE) 17:01:17 437.485
CUTE-I 09 Feb 16:58:34 17:03:42 51° 68° (ENE) 17:08:54 437.470
DOVE 4 09 Feb 17:05:55 17:07:14 11° 54° (NE) 17:08:31 437.250
AO-7 09 Feb 17:08:10 17:13:13 17° 275° (W) 17:18:18 29.400- 29.500
PCSat 09 Feb 17:12:03 17:15:27 16° 22° (NNE) 17:18:51 145.827
Cubesat XI-IV 09 Feb 17:12:03 17:17:19 66° 70° (ENE) 17:22:38 437.490
BEESAT 2 09 Feb 17:18:24 17:21:47 26° 117° (ESE) 17:25:12 435.950
GOMX 1 09 Feb 17:19:53 17:24:12 26° 63° (ENE) 17:28:23 467.674
AO-85 09 Feb 17:22:32 17:27:12 29° 31° (NNE) 17:31:37 145.980
STARS 09 Feb 17:33:30 17:36:48 21° 299° (WNW) 17:40:06 437.465
MOZHAYETS 4 09 Feb 17:41:10 17:44:56 25° 297° (WNW) 17:48:43
RS-15 09 Feb 17:42:45 17:53:54 43° 19° (NNE) 18:05:25 29.354- 29.394
HO-68 09 Feb 17:45:40 17:51:22 26° 52° (NE) 17:57:04 435.675
BRITE-PL 09 Feb 17:49:11 17:54:52 74° 73° (ENE) 18:00:22 437.365/2234.400
GONETS M04 09 Feb 17:51:59 17:57:52 19° 51° (NE) 18:03:44
KKS-1 09 Feb 17:52:07 17:52:45 10° 307° (NW) 17:53:22 437.445
CINEMA 3 09 Feb 18:01:38 18:03:18 12° 57° (ENE) 18:04:58 145.822/145.860
ISS 09 Feb 18:02:02 18:05:17 74° 345° (NNW) 18:08:32 145.825
Cosmos 2504 09 Feb 18:04:58 18:11:32 25° 283° (WNW) 18:17:50 435.465 / 435.565
CUTE 1.7 + AOD 2 09 Feb 18:19:53 18:22:46 18° 61° (ENE) 18:25:40 437.475
CUBESAT XI-V 09 Feb 18:20:28 18:25:12 73° 287° (WNW) 18:29:53 437.345
LilacSat-2 09 Feb 18:22:14 18:25:35 29° 265° (W) 18:28:57 437.200
O/OREOS (USA 219) 09 Feb 18:25:39 18:29:47 34° 254° (WSW) 18:33:55 437.305
SEEDS 09 Feb 18:26:52 18:29:33 17° 60° (ENE) 18:32:14 437.485
BEESAT 3 09 Feb 18:31:44 18:35:37 48° 315° (NW) 18:39:30 437.485
Cosmos 2491 09 Feb 18:33:30 18:37:40 14° 315° (NW) 18:41:52 435.465 / 435.565
DOVE 4 09 Feb 18:39:07 18:44:07 63° 72° (ENE) 18:48:51 437.250
CUTE-I 09 Feb 18:39:35 18:44:02 27° 267° (W) 18:48:32 437.470
AAUSAT CUBESAT 2 09 Feb 18:42:17 18:44:41 15° 59° (ENE) 18:47:05 437.432
Cubesat XI-IV 09 Feb 18:53:55 18:57:53 21° 270° (W) 19:01:53 437.490
PCSat 09 Feb 18:54:59 19:00:14 46° 46° (NE) 19:05:28 145.827
STRAND 1 09 Feb 18:55:36 19:00:25 37° 97° (E) 19:05:10 437.568
BEESAT 2 09 Feb 18:55:40 18:59:31 43° 316° (NW) 19:03:25 435.950
GOMX 1 09 Feb 18:56:43 19:02:00 56° 260° (W) 19:07:05 467.674
AO-85 09 Feb 19:03:01 19:08:18 75° 234° (SW) 19:13:08 145.980
CANX-2 09 Feb 19:03:27 19:07:31 50° 71° (ENE) 19:11:38 2200.000
AIST 2 09 Feb 19:11:26 19:15:22 40° 121° (ESE) 19:19:18 435.215
FUNcube-1 09 Feb 19:15:15 19:16:37 11° 57° (ENE) 19:17:59 145.935
Cosmos 2499 09 Feb 19:19:22 19:26:16 26° 57° (ENE) 19:32:46 435.465 / 435.565
BRITE-PL 09 Feb 19:29:42 19:33:49 20° 271° (W) 19:37:52 437.365/2234.400
HO-68 09 Feb 19:31:09 19:38:21 84° 253° (WSW) 19:45:37 435.675
CINEMA 3 09 Feb 19:35:12 19:39:48 80° 74° (ENE) 19:44:13 145.822/145.860
ISS 09 Feb 19:38:45 19:41:57 55° 5° (N) 19:45:10 145.825
CUBEBUG 2 09 Feb 19:43:45 19:47:43 38° 69° (ENE) 19:51:38 437.445
UWE-3 09 Feb 19:45:09 19:48:49 29° 67° (ENE) 19:52:28 435.000/436.395/437.385
Oscar 11 09 Feb 19:45:44 19:49:24 28° 65° (ENE) 19:53:07 145.826/435.025
COMPASS 1 09 Feb 19:46:43 19:50:51 72° 74° (ENE) 19:55:02 437.405
GONETS M04 09 Feb 19:47:51 19:56:39 69° 77° (ENE) 20:05:26
CUTE 1.7 + AOD 2 09 Feb 19:54:05 19:58:13 57° 260° (W) 20:02:25 437.475
RS-15 09 Feb 19:56:12 20:08:21 82° 49° (NE) 20:20:46 29.354- 29.394
DELFI C3 09 Feb 19:56:46 19:59:41 20° 63° (ENE) 20:02:38 145.870
CUBESAT XI-V 09 Feb 19:59:56 20:01:46 12° 306° (NW) 20:03:36 437.345
PRISM 09 Feb 20:00:03 20:04:09 48° 100° (E) 20:08:11 437.425
SEEDS 09 Feb 20:00:40 20:04:49 63° 259° (W) 20:09:01 437.485
BEESAT 3 09 Feb 20:12:14 20:14:19 14° 337° (NNW) 20:16:24 437.485
AAUSAT CUBESAT 2 09 Feb 20:15:35 20:19:41 70° 258° (WSW) 20:23:52 437.432
DOVE 4 09 Feb 20:18:34 20:22:11 19° 269° (W) 20:25:41 437.250
AIST 1 09 Feb 20:29:24 20:32:25 18° 65° (ENE) 20:35:24
STRAND 1 09 Feb 20:34:52 20:39:34 36° 296° (WNW) 20:44:14 437.568
BEESAT 2 09 Feb 20:36:27 20:38:25 13° 338° (NNW) 20:40:25 435.950
PCSat 09 Feb 20:38:37 20:43:34 36° 246° (WSW) 20:48:28 145.827
ZACube-1 09 Feb 20:38:55 20:43:06 72° 73° (ENE) 20:47:15 437.345
CANX-2 09 Feb 20:40:41 20:43:41 19° 269° (W) 20:46:42 2200.000
AO-85 09 Feb 20:45:39 20:47:50 13° 255° (WSW) 20:49:57 145.980
FUNcube-1 09 Feb 20:48:01 20:52:13 85° 72° (ENE) 20:56:24 145.935
AIST 2 09 Feb 20:50:10 20:53:57 33° 321° (NW) 20:57:46 435.215
VELOX 1 09 Feb 20:54:28 20:55:21 11° 53° (NE) 20:56:14 145.980
HUMSAT D 09 Feb 20:58:53 21:02:38 37° 68° (ENE) 21:06:25 437.325/437.525
AISAT 09 Feb 21:09:16 21:11:47 15° 57° (ENE) 21:14:17 437.250
Cosmos 2499 09 Feb 21:12:03 21:20:39 86° 263° (W) 21:28:34 435.465 / 435.565
ISS 09 Feb 21:15:16 21:18:29 65° 205° (SSW) 21:21:43 145.825
CINEMA 3 09 Feb 21:15:19 21:17:28 13° 272° (W) 21:19:36 145.822/145.860
CUBEBUG 2 09 Feb 21:20:57 21:24:29 24° 266° (W) 21:27:59 437.445
UWE-3 09 Feb 21:21:29 21:25:17 31° 264° (W) 21:29:02 435.000/436.395/437.385
Oscar 11 09 Feb 21:21:31 21:25:27 34° 263° (W) 21:29:26 145.826/435.025
UKube-1 09 Feb 21:22:10 21:24:57 17° 59° (ENE) 21:27:45 .
HO-68 09 Feb 21:22:24 21:27:08 19° 273° (W) 21:31:56 435.675
COMPASS 1 09 Feb 21:24:59 21:26:57 13° 272° (W) 21:28:56 437.405
CUBEBUG 1 09 Feb 21:28:39 21:31:35 18° 59° (ENE) 21:34:31 437.445
ESTCUBE 1 09 Feb 21:29:34 21:33:08 23° 62° (ENE) 21:36:42 437.505/2401.250
DELFI C3 09 Feb 21:30:31 21:34:20 45° 261° (W) 21:38:13 145.870
DX 1 09 Feb 21:33:12 21:36:42 24° 62° (ENE) 21:40:13 434.975-435.025
ANTELSAT 09 Feb 21:35:29 21:38:07 16° 90° (E) 21:40:47 437.575/2403.000
PRISM 09 Feb 21:36:03 21:39:11 21° 299° (WNW) 21:42:18 437.425
TIGRISAT 09 Feb 21:42:11 21:45:05 17° 91° (E) 21:48:00 435.000
50 SAT 09 Feb 21:44:24 21:47:33 27° 67° (ENE) 21:50:45 437.505
GONETS M04 09 Feb 21:45:26 21:52:50 32° 279° (W) 22:00:15
AIST 1 09 Feb 22:06:08 22:10:25 55° 265° (W) 22:14:37
RS-15 09 Feb 22:09:18 22:19:52 37° 253° (WSW) 22:30:36 29.354- 29.394
ZACube-1 09 Feb 22:17:57 22:19:54 13° 272° (W) 22:21:51 437.345
UNISAT 6 09 Feb 22:25:56 22:30:08 47° 99° (E) 22:34:23 437.425
VELOX 1 09 Feb 22:26:34 22:30:59 67° 72° (ENE) 22:35:27 145.980
FUNcube-1 09 Feb 22:28:01 22:29:05 11° 273° (W) 22:30:10 145.935
AIST 2 09 Feb 22:32:04 22:33:41 12° 343° (NNW) 22:35:19 435.215
HUMSAT D 09 Feb 22:35:07 22:38:25 23° 267° (W) 22:41:44 437.325/437.525
POLYITAN 1 09 Feb 22:39:52 22:42:48 18° 91° (E) 22:45:43 437.675
QB50P2 09 Feb 22:40:27 22:43:29 19° 91° (E) 22:46:29 145.880/145.840
AISAT 09 Feb 22:43:12 22:47:42 83° 258° (WSW) 22:52:11 437.250
ISS 09 Feb 22:52:38 22:54:27 14° 223° (SW) 22:56:16 145.825
UKube-1 09 Feb 22:56:14 23:00:33 68° 256° (WSW) 23:04:54 .
CUBEBUG 1 09 Feb 23:03:00 23:07:25 66° 258° (WSW) 23:11:52 437.445
ESTCUBE 1 09 Feb 23:05:16 23:09:40 49° 261° (W) 23:14:07 437.505/2401.250
SPROUT 09 Feb 23:05:37 23:09:48 52° 71° (ENE) 23:13:59 437.525
Cosmos 2499 09 Feb 23:06:39 23:12:27 21° 285° (WNW) 23:17:59 435.465 / 435.565
DX 1 09 Feb 23:08:28 23:12:41 45° 261° (W) 23:16:55 434.975-435.025
POPSAT HIP 1 09 Feb 23:09:38 23:13:30 34° 97° (E) 23:17:20 437.405
ANTELSAT 09 Feb 23:10:59 23:15:16 64° 288° (WNW) 23:19:36 437.575/2403.000
NANOSAT C BR1 09 Feb 23:14:18 23:18:13 37° 97° (E) 23:22:07 145.865
TISAT 1 09 Feb 23:15:14 23:18:51 28° 65° (ENE) 23:22:26 437.305
DUCHIFAT 1 09 Feb 23:15:44 23:19:38 36° 97° (E) 23:23:30 145.980
TIGRISAT 09 Feb 23:17:55 23:22:09 57° 288° (WNW) 23:26:26 435.000
50 SAT 09 Feb 23:18:21 23:21:33 27° 265° (W) 23:24:48 437.505
SWISSCUBE 09 Feb 23:19:32 23:19:59 10° 51° (NE) 23:20:27 437.505
QB50P1 09 Feb 23:22:10 23:26:14 46° 99° (E) 23:30:17 145.935-145.965
BEESAT 3 09 Feb 23:30:57 23:33:18 15° 25° (NNE) 23:35:37 437.485
ITUPSAT 1 09 Feb 23:53:17 23:56:26 18° 57° (ENE) 23:59:35 437.325
BEESAT 2 09 Feb 23:55:08 23:57:41 16° 27° (NNE) 00:00:13 435.950
BEESAT 10 Feb 00:01:17 00:04:46 21° 59° (ENE) 00:08:17 436.000
UNISAT 6 10 Feb 00:03:16 00:06:37 22° 297° (WNW) 00:09:59 437.425
VELOX 1 10 Feb 00:05:12 00:07:56 16° 270° (W) 00:10:41 145.980
POLYITAN 1 10 Feb 00:14:51 00:18:56 51° 289° (WNW) 00:23:01 437.675
QB50P2 10 Feb 00:15:30 00:19:36 49° 289° (WNW) 00:23:39 145.880/145.840
BUGSAT 1 10 Feb 00:17:09 00:21:14 87° 108° (ESE) 00:25:15 437.445
AISAT 10 Feb 00:24:07 00:24:55 10° 274° (W) 00:25:43 437.250
CUSAT 1 10 Feb 00:30:52 00:37:13 26° 83° (E) 00:43:28 437.405
Cosmos 2491 10 Feb 00:37:57 00:45:13 28° 59° (ENE) 00:52:27 435.465 / 435.565
SPROUT 10 Feb 00:43:02 00:46:06 19° 269° (W) 00:49:09 437.525
Oscar 19 10 Feb 00:43:53 00:47:51 22° 91° (E) 00:51:49 437.125/150
POPSAT HIP 1 10 Feb 00:45:38 00:49:13 28° 295° (WNW) 00:52:47 437.405
NANOSAT C BR1 10 Feb 00:50:22 00:53:51 26° 296° (WNW) 00:57:19 145.865
TISAT 1 10 Feb 00:50:34 00:54:26 34° 263° (W) 00:58:19 437.305
DUCHIFAT 1 10 Feb 00:51:46 00:55:13 26° 296° (WNW) 00:58:41 145.980
SWISSCUBE 10 Feb 00:52:09 00:56:49 58° 70° (ENE) 01:01:32 437.505
QB50P1 10 Feb 00:58:33 01:01:46 21° 298° (WNW) 01:04:58 145.935-145.965
DANDE 10 Feb 01:04:27 01:10:59 28° 82° (E) 01:17:49 436.750
BEESAT 3 10 Feb 01:07:56 01:11:52 57° 46° (NE) 01:15:47 437.485
Gurwin Techsat 1B 10 Feb 01:15:56 01:19:30 18° 89° (E) 01:23:03 435.225
PHONESAT 2.4 10 Feb 01:23:43 01:24:35 11° 160° (SSE) 01:25:28 2401.200-2431.200
STARS 10 Feb 01:24:09 01:25:40 12° 54° (NE) 01:27:10 437.465
ITUPSAT 1 10 Feb 01:28:58 01:33:44 76° 257° (WSW) 01:38:33 437.325
BEESAT 2 10 Feb 01:32:20 01:36:21 65° 49° (NE) 01:40:18 435.950
MOZHAYETS 4 10 Feb 01:36:05 01:37:26 11° 54° (NE) 01:38:48
YUBILEINY 10 Feb 01:36:07 01:41:49 20° 74° (ENE) 01:47:33 435.215
BEESAT 10 Feb 01:37:26 01:42:09 62° 258° (WSW) 01:46:55 436.000
KKS-1 10 Feb 01:38:58 01:42:37 25° 63° (ENE) 01:46:16 437.445
AIST 2 10 Feb 01:50:53 01:54:07 21° 32° (NNE) 01:57:19 435.215
ITAMSAT 1 10 Feb 01:53:04 01:56:52 20° 90° (E) 02:00:39 435.822/435.867
BUGSAT 1 10 Feb 01:54:23 01:56:01 12° 303° (WNW) 01:57:38 437.445
JAS-2 10 Feb 01:59:23 02:05:12 66° 102° (ESE) 02:10:29 435.910
CUSAT 1 10 Feb 02:10:40 02:18:47 85° 282° (WNW) 02:26:43 437.405
Oscar 19 10 Feb 02:22:31 02:27:35 58° 290° (WNW) 02:32:36 437.125/150
SWISSCUBE 10 Feb 02:31:29 02:34:59 20° 269° (W) 02:38:32 437.505
Cosmos 2491 10 Feb 02:34:23 02:43:09 82° 264° (W) 02:51:55 435.465 / 435.565
DANDE 10 Feb 02:45:07 02:53:08 82° 283° (WNW) 03:01:42 436.750
BEESAT 3 10 Feb 02:46:27 02:49:17 19° 246° (WSW) 02:52:05 437.485
Gurwin Techsat 1B 10 Feb 02:54:43 03:00:03 76° 288° (WNW) 03:05:22 435.225
STARS 10 Feb 02:56:53 03:01:17 76° 73° (ENE) 03:05:42 437.465
PHONESAT 2.4 10 Feb 02:58:48 03:01:05 18° 177° (S) 03:03:23 2401.200-2431.200
Cosmos 2504 10 Feb 03:04:33 03:09:06 15° 70° (ENE) 03:13:41 435.465 / 435.565
AO-7 10 Feb 03:07:47 03:14:59 31° 94° (E) 03:22:06 29.400- 29.500
MOZHAYETS 4 10 Feb 03:09:14 03:13:46 70° 73° (ENE) 03:18:22
BEESAT 2 10 Feb 03:11:12 03:13:49 17° 247° (WSW) 03:16:23 435.950
ITUPSAT 1 10 Feb 03:11:43 03:12:26 10° 275° (W) 03:13:08 437.325
KKS-1 10 Feb 03:14:45 03:19:00 43° 261° (W) 03:23:17 437.445
YUBILEINY 10 Feb 03:28:24 03:37:09 80° 96° (E) 03:46:02 435.215
AIST 2 10 Feb 03:28:58 03:33:08 81° 231° (SW) 03:37:14 435.215
ITAMSAT 1 10 Feb 03:31:37 03:36:51 67° 289° (WNW) 03:42:02 435.822/435.867
JAS-2 10 Feb 03:45:14 03:49:46 23° 304° (NW) 03:53:58 435.910
CUBESAT XI-V 10 Feb 03:51:24 03:55:13 25° 63° (ENE) 03:59:04 437.345
CUSAT 1 10 Feb 03:55:43 04:02:09 25° 302° (WNW) 04:08:21 437.405
Oscar 19 10 Feb 04:04:25 04:05:52 11° 310° (NW) 04:07:20 437.125/150
SO-50 10 Feb 04:21:05 04:24:52 22° 113° (ESE) 04:28:40 436.795
HORYU 2 10 Feb 04:28:32 04:32:51 48° 100° (E) 04:37:10 437.375
DANDE 10 Feb 04:30:55 04:37:26 25° 305° (NW) 04:44:08 436.750
Cosmos 2491 10 Feb 04:32:49 04:38:37 20° 286° (WNW) 04:44:25 435.465 / 435.565
PHONESAT 2.4 10 Feb 04:35:52 04:37:39 14° 194° (SSW) 04:39:26 2401.200-2431.200
STARS 10 Feb 04:36:01 04:38:12 13° 272° (W) 04:40:25 437.465
Gurwin Techsat 1B 10 Feb 04:36:18 04:39:10 15° 307° (NW) 04:42:02 435.225
STRAND 1 10 Feb 04:39:26 04:42:13 15° 53° (NE) 04:45:02 437.568
M-CUBED/EXP-1 PRIME 10 Feb 04:39:32 04:42:50 59° 108° (ESE) 04:46:19 437.505
MOZHAYETS 4 10 Feb 04:48:43 04:51:28 16° 272° (W) 04:54:13
AUBIESAT-1 10 Feb 04:49:02 04:52:25 64° 108° (ESE) 04:55:58 437.475
Cosmos 2504 10 Feb 04:52:09 05:00:38 64° 92° (E) 05:09:26 435.465 / 435.565
AO-7 10 Feb 05:00:09 05:08:28 72° 295° (WNW) 05:16:42 29.400- 29.500
AIST 2 10 Feb 05:09:54 05:10:54 11° 251° (WSW) 05:11:54 435.215
CUTE-I 10 Feb 05:12:40 05:15:35 15° 87° (E) 05:18:30 437.470
ITAMSAT 1 10 Feb 05:13:01 05:15:23 13° 309° (NW) 05:17:45 435.822/435.867
Cubesat XI-IV 10 Feb 05:25:52 05:29:39 19° 89° (E) 05:33:23 437.490
YUBILEINY 10 Feb 05:27:38 05:35:01 29° 300° (WNW) 05:42:29 435.215
CUBESAT XI-V 10 Feb 05:27:50 05:32:22 47° 261° (W) 05:36:57 437.345
LilacSat-2 10 Feb 05:51:30 05:54:31 22° 93° (E) 05:57:31 437.200
BRITE-PL 10 Feb 05:51:43 05:54:44 16° 86° (E) 05:57:37 437.365/2234.400
SO-50 10 Feb 06:00:02 06:04:57 68° 313° (NW) 06:09:55 436.795
HORYU 2 10 Feb 06:05:41 06:09:10 23° 298° (WNW) 06:12:39 437.375
STRAND 1 10 Feb 06:15:30 06:20:37 80° 73° (ENE) 06:25:47 437.568
M-CUBED/EXP-1 PRIME 10 Feb 06:15:33 06:17:10 13° 305° (NW) 06:18:48 437.505
AUBIESAT-1 10 Feb 06:25:05 06:26:40 13° 305° (NW) 06:28:15 437.475
DOVE 4 10 Feb 06:36:51 06:37:35 10° 85° (E) 06:38:19 437.250
Cosmos 2504 10 Feb 06:46:42 06:54:37 37° 295° (WNW) 07:02:46 435.465 / 435.565
CUTE-I 10 Feb 06:50:59 06:56:25 89° 106° (ESE) 07:01:48 437.470
PRISM 10 Feb 06:53:20 06:57:27 62° 72° (ENE) 07:01:37 437.425
AO-7 10 Feb 06:53:54 06:59:57 23° 318° (NW) 07:05:59 29.400- 29.500
GOMX 1 10 Feb 06:55:02 06:59:04 31° 94° (E) 07:02:52 467.674
HO-68 10 Feb 06:56:07 07:00:01 15° 84° (E) 07:03:54 435.675
GONETS M04 10 Feb 07:02:43 07:07:15 16° 71° (ENE) 07:11:49
O/OREOS (USA 219) 10 Feb 07:04:18 07:07:06 16° 100° (E) 07:09:55 437.305
Cubesat XI-IV 10 Feb 07:04:53 07:10:17 73° 288° (WNW) 07:15:39 437.490
